When you browse on this site, cookies collect data to enhance your experience and personalize the content and advertising you see.
Visit our Privacy Policy to learn more. By continuing to use the site, you agree to this use of cookies and data.
  • Em Portugal
  • Lista de países
  • Para 7 dias
  • Temperatura da água
  • Mapa do tempo
  • Widgets de tempo
  • user-avatar
    Iniciar Sessão

    Previsão horária em Pabna

    Hoje, 23 Outubro, Quarta-feira

    Tempo Temperatura Precipitação Vento Pressão Humidade
    00:00 +27°C° 0 mm 2 m/s 755 mmHg 59%
    01:00 +27°C° 0 mm 2 m/s 754 mmHg 60%
    02:00 +26°C° 0 mm 2 m/s 754 mmHg 62%
    03:00 +26°C° 0 mm 2 m/s 754 mmHg 63%
    04:00 +26°C° 0 mm 1 m/s 754 mmHg 64%
    05:00 +25°C° 0 mm 1 m/s 754 mmHg 65%
    06:00 +25°C° 0 mm 1 m/s 754 mmHg 68%
    07:00 +27°C° 0 mm 1 m/s 755 mmHg 65%
    08:00 +28°C° 0 mm 1 m/s 755 mmHg 61%
    09:00 +30°C° 0 mm 1 m/s 755 mmHg 57%
    10:00 +30°C° 0 mm 1 m/s 755 mmHg 56%
    11:00 +31°C° 0 mm 1 m/s 755 mmHg 55%
    12:00 +33°C° 0 mm 1 m/s 755 mmHg 54%
    13:00 +32°C° 0 mm 1 m/s 754 mmHg 55%
    14:00 +31°C° 0 mm 1 m/s 754 mmHg 56%
    15:00 +30°C° 0 mm 2 m/s 753 mmHg 58%
    16:00 +30°C° 0 mm 2 m/s 753 mmHg 58%
    17:00 +29°C° 0 mm 2 m/s 753 mmHg 59%
    18:00 +29°C° 0 mm 2 m/s 754 mmHg 59%
    19:00 +28°C° 0 mm 2 m/s 754 mmHg 60%
    20:00 +28°C° 0 mm 2 m/s 755 mmHg 61%
    21:00 +28°C° 0 mm 2 m/s 755 mmHg 61%
    22:00 +27°C° 0.3 mm 2 m/s 755 mmHg 68%
    23:00 +26°C° 0.3 mm 2 m/s 755 mmHg 74%

    Amanhã, 24 Outubro, Quinta-feira

    Tempo Temperatura Precipitação Vento Pressão Humidade
    00:00 +25°C° 0.3 mm 2 m/s 755 mmHg 80%
    01:00 +25°C° 0.4 mm 2 m/s 755 mmHg 83%
    02:00 +25°C° 0.4 mm 2 m/s 755 mmHg 86%
    03:00 +24°C° 0.4 mm 1 m/s 755 mmHg 89%
    04:00 +24°C° 1.7 mm 2 m/s 755 mmHg 90%
    05:00 +24°C° 1.7 mm 2 m/s 756 mmHg 91%
    06:00 +22°C° 1.7 mm 3 m/s 756 mmHg 92%
    07:00 +22°C° 2 mm 3 m/s 757 mmHg 92%
    08:00 +22°C° 2 mm 3 m/s 757 mmHg 92%
    09:00 +21°C° 2 mm 3 m/s 758 mmHg 92%
    10:00 +21°C° 0.6 mm 3 m/s 758 mmHg 92%
    11:00 +22°C° 0.6 mm 3 m/s 757 mmHg 92%
    12:00 +22°C° 0.6 mm 3 m/s 757 mmHg 92%
    13:00 +22°C° 0.2 mm 3 m/s 757 mmHg 92%
    14:00 +22°C° 0.2 mm 3 m/s 756 mmHg 92%
    15:00 +22°C° 0.2 mm 3 m/s 755 mmHg 91%
    16:00 +23°C° 0.3 mm 2 m/s 755 mmHg 92%
    17:00 +23°C° 0.3 mm 2 m/s 755 mmHg 93%
    18:00 +23°C° 0.3 mm 1 m/s 755 mmHg 93%
    19:00 +23°C° 0.1 mm 2 m/s 756 mmHg 93%
    20:00 +23°C° 0.1 mm 2 m/s 756 mmHg 93%
    21:00 +23°C° 0.1 mm 2 m/s 757 mmHg 92%
    22:00 +23°C° 0.2 mm 2 m/s 757 mmHg 92%
    23:00 +22°C° 0.2 mm 1 m/s 757 mmHg 92%

    Depois de amanhã, 25 Outubro, Sexta-feira

    Tempo Temperatura Precipitação Vento Pressão Humidade
    00:00 +22°C° 0.2 mm 1 m/s 757 mmHg 92%
    01:00 +22°C° 0.6 mm 1 m/s 756 mmHg 93%
    02:00 +22°C° 0.6 mm 1 m/s 756 mmHg 94%
    03:00 +22°C° 0.6 mm 1 m/s 756 mmHg 94%
    04:00 +21°C° 1.7 mm 2 m/s 756 mmHg 95%
    05:00 +21°C° 1.7 mm 2 m/s 756 mmHg 96%
    06:00 +21°C° 1.7 mm 3 m/s 756 mmHg 96%
    07:00 +21°C° 2.5 mm 2 m/s 756 mmHg 96%
    08:00 +23°C° 2.5 mm 2 m/s 757 mmHg 96%
    09:00 +23°C° 2.5 mm 2 m/s 758 mmHg 96%
    10:00 +23°C° 2.5 mm 2 m/s 757 mmHg 96%
    11:00 +23°C° 2.5 mm 2 m/s 757 mmHg 96%
    12:00 +22°C° 2.5 mm 3 m/s 757 mmHg 96%
    13:00 +22°C° 3.2 mm 3 m/s 756 mmHg 96%
    14:00 +22°C° 3.2 mm 3 m/s 756 mmHg 96%
    15:00 +22°C° 3.2 mm 3 m/s 755 mmHg 95%
    16:00 +22°C° 1.8 mm 4 m/s 755 mmHg 95%
    17:00 +21°C° 1.8 mm 4 m/s 756 mmHg 94%
    18:00 +21°C° 1.8 mm 4 m/s 756 mmHg 93%
    19:00 +21°C° 1.3 mm 4 m/s 756 mmHg 92%
    20:00 +20°C° 1.3 mm 4 m/s 757 mmHg 92%
    21:00 +20°C° 1.3 mm 5 m/s 757 mmHg 91%
    22:00 +20°C° 2.7 mm 4 m/s 757 mmHg 92%
    23:00 +20°C° 2.7 mm 4 m/s 757 mmHg 94%

    26 Outubro, Sábado

    Tempo Temperatura Precipitação Vento Pressão Humidade
    00:00 +20°C° 2.7 mm 3 m/s 757 mmHg 95%
    01:00 +20°C° 1.3 mm 3 m/s 757 mmHg 95%
    02:00 +20°C° 1.3 mm 3 m/s 757 mmHg 95%
    03:00 +20°C° 1.3 mm 3 m/s 757 mmHg 95%
    04:00 +20°C° 0.7 mm 3 m/s 757 mmHg 95%
    05:00 +20°C° 0.7 mm 2 m/s 757 mmHg 95%
    06:00 +20°C° 0.7 mm 2 m/s 757 mmHg 95%
    07:00 +21°C° 0.3 mm 2 m/s 758 mmHg 94%
    08:00 +21°C° 0.3 mm 2 m/s 758 mmHg 94%
    09:00 +22°C° 0.3 mm 1 m/s 759 mmHg 94%
    10:00 +23°C° 0.1 mm 1 m/s 759 mmHg 91%
    11:00 +23°C° 0.1 mm 1 m/s 758 mmHg 89%
    12:00 +24°C° 0.1 mm 1 m/s 758 mmHg 87%
    13:00 +24°C° 0 mm 1 m/s 757 mmHg 87%
    14:00 +25°C° 0 mm 1 m/s 757 mmHg 86%
    15:00 +25°C° 0 mm 1 m/s 756 mmHg 85%
    16:00 +24°C° 0 mm 1 m/s 756 mmHg 87%
    17:00 +24°C° 0 mm 1 m/s 756 mmHg 88%
    18:00 +24°C° 0 mm 1 m/s 756 mmHg 90%
    19:00 +23°C° 0 mm 1 m/s 757 mmHg 90%
    20:00 +23°C° 0 mm 1 m/s 757 mmHg 91%
    21:00 +21°C° 0 mm 0 m/s 757 mmHg 91%
    22:00 +23°C° 0 mm 1 m/s 757 mmHg 92%
    23:00 +23°C° 0 mm 1 m/s 757 mmHg 92%

    27 Outubro, Domingo

    Tempo Temperatura Precipitação Vento Pressão Humidade
    00:00 +23°C° 0 mm 1 m/s 757 mmHg 92%
    01:00 +23°C° 0.1 mm 1 m/s 757 mmHg 92%
    02:00 +23°C° 0.1 mm 2 m/s 757 mmHg 93%
    03:00 +23°C° 0.1 mm 2 m/s 757 mmHg 93%
    04:00 +23°C° 0.2 mm 2 m/s 757 mmHg 93%
    05:00 +23°C° 0.2 mm 1 m/s 757 mmHg 94%
    06:00 +23°C° 0.2 mm 1 m/s 757 mmHg 94%
    07:00 +23°C° 0.3 mm 1 m/s 758 mmHg 93%
    08:00 +24°C° 0.3 mm 1 m/s 758 mmHg 92%
    09:00 +24°C° 0.3 mm 1 m/s 759 mmHg 92%
    10:00 +25°C° 0.1 mm 1 m/s 758 mmHg 86%
    11:00 +26°C° 0.1 mm 1 m/s 758 mmHg 81%
    12:00 +27°C° 0.1 mm 1 m/s 757 mmHg 76%
    13:00 +28°C° 0 mm 1 m/s 757 mmHg 73%
    14:00 +28°C° 0 mm 2 m/s 756 mmHg 71%
    15:00 +29°C° 0 mm 2 m/s 755 mmHg 69%
    16:00 +28°C° 0 mm 2 m/s 755 mmHg 73%
    17:00 +27°C° 0 mm 2 m/s 755 mmHg 78%
    18:00 +26°C° 0 mm 2 m/s 755 mmHg 82%
    19:00 +26°C° 0 mm 1 m/s 756 mmHg 82%
    20:00 +25°C° 0 mm 1 m/s 756 mmHg 83%
    21:00 +25°C° 0 mm 1 m/s 756 mmHg 83%
    22:00 +24°C° 0 mm 1 m/s 756 mmHg 83%
    23:00 +24°C° 0 mm 1 m/s 756 mmHg 84%

    28 Outubro, Segunda-feira

    Tempo Temperatura Precipitação Vento Pressão Humidade
    00:00 +24°C° 0 mm 1 m/s 756 mmHg 84%
    01:00 +24°C° 0 mm 2 m/s 756 mmHg 85%
    02:00 +23°C° 0 mm 2 m/s 756 mmHg 86%
    03:00 +23°C° 0 mm 2 m/s 756 mmHg 87%
    04:00 +23°C° 0 mm 2 m/s 756 mmHg 89%
    05:00 +23°C° 0 mm 2 m/s 757 mmHg 90%
    06:00 +21°C° 0 mm 2 m/s 757 mmHg 91%
    07:00 +24°C° 0 mm 3 m/s 757 mmHg 88%
    08:00 +25°C° 0 mm 3 m/s 758 mmHg 85%
    09:00 +26°C° 0 mm 3 m/s 759 mmHg 82%
    10:00 +27°C° 0 mm 3 m/s 758 mmHg 75%
    11:00 +28°C° 0 mm 3 m/s 758 mmHg 69%
    12:00 +29°C° 0 mm 3 m/s 757 mmHg 62%
    13:00 +30°C° 0 mm 3 m/s 757 mmHg 61%
    14:00 +30°C° 0 mm 3 m/s 756 mmHg 60%
    15:00 +30°C° 0 mm 3 m/s 755 mmHg 58%
    16:00 +29°C° 0 mm 3 m/s 755 mmHg 63%
    17:00 +28°C° 0 mm 2 m/s 755 mmHg 68%
    18:00 +27°C° 0 mm 2 m/s 755 mmHg 73%
    19:00 +26°C° 0 mm 2 m/s 755 mmHg 75%
    20:00 +26°C° 0 mm 2 m/s 756 mmHg 76%
    21:00 +25°C° 0 mm 2 m/s 756 mmHg 78%
    22:00 +25°C° 0 mm 2 m/s 756 mmHg 80%
    23:00 +25°C° 0 mm 2 m/s 756 mmHg 81%

    29 Outubro, Terça-feira

    Tempo Temperatura Precipitação Vento Pressão Humidade
    00:00 +24°C° 0 mm 2 m/s 756 mmHg 82%
    01:00 +24°C° 0 mm 2 m/s 756 mmHg 82%
    02:00 +24°C° 0 mm 2 m/s 756 mmHg 82%
    03:00 +24°C° 0 mm 2 m/s 756 mmHg 81%
    04:00 +22°C° 0 mm 3 m/s 756 mmHg 81%
    05:00 +22°C° 0 mm 3 m/s 756 mmHg 81%
    06:00 +22°C° 0 mm 3 m/s 757 mmHg 81%
    07:00 +24°C° 0 mm 3 m/s 757 mmHg 79%
    08:00 +25°C° 0 mm 3 m/s 758 mmHg 77%
    09:00 +26°C° 0 mm 4 m/s 758 mmHg 75%
    10:00 +28°C° 0 mm 4 m/s 758 mmHg 69%
    11:00 +29°C° 0 mm 3 m/s 757 mmHg 64%
    12:00 +30°C° 0 mm 3 m/s 757 mmHg 59%
    13:00 +30°C° 0 mm 3 m/s 756 mmHg 57%
    14:00 +31°C° 0 mm 3 m/s 755 mmHg 56%
    15:00 +31°C° 0 mm 3 m/s 755 mmHg 55%
    16:00 +30°C° 0 mm 2 m/s 755 mmHg 58%
    17:00 +28°C° 0 mm 2 m/s 755 mmHg 62%
    18:00 +27°C° 0 mm 2 m/s 755 mmHg 65%
    19:00 +27°C° 0 mm 2 m/s 755 mmHg 68%
    20:00 +26°C° 0 mm 2 m/s 756 mmHg 70%
    21:00 +26°C° 0 mm 2 m/s 756 mmHg 72%
    22:00 +25°C° 0 mm 2 m/s 756 mmHg 74%
    23:00 +25°C° 0 mm 2 m/s 756 mmHg 76%
    Mostrar mais